Regional Weather Roundup
Issued by NWS

Home | Current Version | Previous Version | Text Only | Print | Product List | Glossary On
Versions: 1 2 3 4 5 6 7 8 9 10 11 12 13 14 15 16 17 18 19 20 21 22 23 24 25 26 27 28 29 30 31 32 33 34 35 36 37 38 39 40 41 42 43 44 45 46 47 48 49 50
000
ASUS44 KFWD 201310
RWRTX
NORTH TEXAS HOURLY WEATHER ROUNDUP
NATIONAL WEATHER SERVICE FORT WORTH TX
800 AM CDT WED AUG 20 2014

NOTE: "FAIR" INDICATES FEW OR NO CLOUDS BELOW 12,000 FEET WITH NO
SIGNIFICANT WEATHER AND/OR OBSTRUCTIONS TO VISIBILITY.

TXZ118-119-201400-
DALLAS/FORT WORTH METROPLEX

CITY           SKY/WX    TMP DP  RH WIND       PRES   REMARKS
DFW AIRPORT    CLOUDY    80  71  74 SE12      29.95R
DALLAS LOVE    CLOUDY    79  72  79 S13       29.95R
FTW MEACHAM    CLOUDY    81  69  67 S10       29.94R
DAL-EXECUTIVE  CLOUDY    80  72  76 S10       29.96R
FTW-ALLIANCE   CLOUDY    80  69  69 S9        29.93R
FTW-NAS-JRB    CLOUDY    82  68  62 S13       29.98R
FTW-SPINKS     SUNNY     79  70  73 SE7       29.96R
ARLINGTON      CLOUDY    79  70  74 SE9       29.95R
GRAND PRAIRIE  SUNNY     79  70  73 SE9       29.97R
ADDISON        PTSUNNY   79  70  73 S14       29.96R
MESQUITE       SUNNY     79  73  83 SE7       29.97R
LANCASTER      PTSUNNY   76  71  84 SE6       29.97R
$$

TXZ091>094-102>105-117-120-121-131>134-201400-
NORTH CENTRAL TEXAS

CITY           SKY/WX    TMP DP  RH WIND       PRES   REMARKS
SHRMAN/DENISON CLOUDY    78  70  77 S12       29.96R
GAINESVILLE    PTSUNNY   77  70  79 SE7       29.96R
BOWIE          CLOUDY    77  70  78 S6        29.94R
BRIDGEPORT     MOSUNNY   79  64  60 S9        29.95R
DECATUR        PTSUNNY   77  68  72 S8        29.95R
DENTON         CLOUDY    79  69  71 S8        29.94R
MCKINNEY       CLOUDY    78  72  81 S13       29.96R
GREENVILLE     PTSUNNY   77  72  83 S9        29.98R
ROCKWALL       PTSUNNY   78  74  86 S8        29.96R
TERRELL        PTSUNNY   77  75  93 S7        29.97R
WAXAHACHIE     PTSUNNY   76  72  85 SE8       29.98R
CLEBURNE       CLOUDY    79  73  83 S8        29.97R
GRANBURY       PTSUNNY   81  68  64 S13       29.96R
$$

TXZ083>090-098>101-113>116-127>130-139>142-154-155-201400-
WESTERN NORTH TEXAS

CITY           SKY/WX    TMP DP  RH WIND       PRES   REMARKS
WICHITA FALLS  PTSUNNY   78  67  68 S9        29.90R
WF-KICKAPOO    MOSUNNY   78  65  65 S5        29.92R
VERNON         SUNNY     79  64  60 S12       29.91R
ABILENE        SUNNY     75  65  70 S15       29.95R
BRECKENRIDGE   PTSUNNY   79  63  57 S12G17    29.94R HAZE
GRAHAM         MOSUNNY   78  64  61 S7        29.93R
MINERAL WELLS  MOSUNNY   78  67  68 S9        29.94R
STEPHENVILLE   MOSUNNY   75  67  77 S12       29.99R
COMANCHE       PTSUNNY   75  68  80 S15       29.97R
BROWNWOOD      MOSUNNY   75  68  78 S8        29.98R
COLEMAN        PTSUNNY   73  65  75 S13       29.97R
BRADY          SUNNY     72  68  88 SE9       29.98R
$$

TXZ143>147-156>162-174-175-201400-
CENTRAL TEXAS

CITY           SKY/WX    TMP DP  RH WIND       PRES   REMARKS
WACO           MOSUNNY   79  73  82 S13       29.97R
WACO-TSTC      PTSUNNY   75  73  94 S9        29.97R
WACO-MCGREGOR  MOSUNNY   77  70  78 S8        29.98R
HILLSBORO      PTSUNNY   77  71  82 SE8       29.97R
CORSICANA      MOSUNNY   79  74  84 S9        29.99R
MEXIA          MOSUNNY   75  74  95 SE6       29.98R
HEARNE           N/A     77  75  91 SE3       29.98S
CAMERON        MOSUNNY   79  75  87 S6        29.97R
TEMPLE         MOSUNNY   77  70  78 S12       29.97R
KILLEEN        MOSUNNY   77  72  83 S9        29.97R
KILLEEN-SKYLRK CLOUDY    79  70  73 SE7       29.97R
FORT HOOD      CLOUDY    80  73  79 SE7       29.98R
GATESVILLE     MOSUNNY   79  72  78 S6        30.00R
HAMILTON       MOSUNNY   75  70  84 S10G18    29.99R
LAMPASAS       SUNNY     76  73  93 S5        29.97S
$$

TXZ095>097-106>112-122>126-135>138-148>153-164>167-201400-
EAST TEXAS

CITY           SKY/WX    TMP DP  RH WIND       PRES   REMARKS
PARIS          MOSUNNY   73  66  78 S8        29.99R
SULPHUR SPRNGS MOSUNNY   78  73  82 S8        30.00R
CLARKSVILLE    CLOUDY    73  71  95 SE5       29.99S
MOUNT PLEASANT MOSUNNY   71  71 100 CALM      30.01R
GILMER         CLOUDY    75  75 100 S8        30.01S FOG
MINEOLA        CLOUDY    75  75 100 SE5       30.00S
TYLER          CLOUDY    78  74  87 S9        30.00R
LONGVIEW       PTSUNNY   76  72  87 SW7       30.00R
MARSHALL       CLOUDY    76  73  90 S3        30.03R
ATHENS         CLOUDY    75  73  94 S8        29.99R
PALESTINE      MOSUNNY   76  75  98 SE5       30.01R FOG
JACKSONVILLE   FOG       75  74  96 S8        30.03S VSB 1/4
HENDERSON      CLOUDY    73  73  98 CALM      30.02R
NACOGDOCHES    PTSUNNY   72  72 100 SE5       30.02R
LUFKIN         MOSUNNY   76  72  87 SE5       30.01R FOG
$$

SUPPLEMENTAL OBSERVATIONS (CENTRAL)

CITY           SKY/WX    TMP DP  RH WIND       PRES   REMARKS
CADDO GRASSLND   N/A     75  70  83 S6          N/A
PAT MAYSE LAKE   N/A     73  70  88 E5          N/A
GREENVILLE       N/A     77  72  83 S7          N/A
CEDAR HILL       N/A     79  72  78 S8          N/A
MCGREGOR         N/A     79  72  78 S10         N/A
TEMPLE           N/A     79  73  83 SE6         N/A
$$

SUPPLEMENTAL OBSERVATIONS (WEST)

CITY           SKY/WX    TMP DP  RH WIND       PRES   REMARKS
POSSUM KINGDOM   N/A     79  64  61 S8          N/A
LBJ GRASSLAND    N/A     79  68  69 SE7         N/A
GRANBURY         N/A     81  68  65 S14         N/A
HAMBY            N/A     75  64  69 S18         N/A
IVIE RESERVOIR   N/A     73  66  78 SE10        N/A
COLORADO BEND    N/A     75  70  83 S6          N/A
$$

SUPPLEMENTAL OBSERVATIONS (EAST)

CITY           SKY/WX    TMP DP  RH WIND       PRES   REMARKS
LUFKIN           N/A     75  73  94 MISG        N/A
N SABINE NF      N/A     73  72  94 MISG        N/A
$$

SUPPLEMENTAL OBSERVATIONS ARE A COLLECTION OF AUTOMATED INSTRUMENTS
THAT ARE MAINTAINED BY A VARIETY OF FEDERAL AND STATE AGENCIES.
CERTAIN ELEMENTS...SUCH AS HUMIDITY VALUES AND SUSTAINED WIND
SPEEDS...MAY BE APPROXIMATED.




USA.gov is the U.S. government's official web portal to all federal, state and local government web resources and services.